TCX19YN EGCC-LGZA

Flight info

Callsign TCX19YN
Flight time N/A
Altitude 35000
Route SANBA N859 HON L15 MOTOX DCT RUCAC DCT LESDO DCT ETINO DCT LASAT DCT DEVDI DCT RIPUS DCT RESIA DCT ROTAR DCT VAKSU DCT RODON DCT LIMJA DCT PITAS UN732 KRK UT321 ASTUS
Aircraft A321/M-SDE3FGHIRWY/LB1

Departure

Time N/A
Airport Manchester Airport (EGCC)

Arrival

Time 2026-04-20 16:11
Airport Zakynthos International Airport Dionysios Solomos (LGZA)
Time Latitude Longitude Altitude Speed Heading
2026-04-20 15:19 40.65305 19.15448 35020 ft 497 kts 163°
2026-04-20 15:19 40.58770 19.18389 35020 ft 497 kts 163°
2026-04-20 15:20 40.52261 19.21316 35024 ft 497 kts 163°
2026-04-20 15:20 40.45711 19.24261 35027 ft 498 kts 163°
2026-04-20 15:21 40.39163 19.27204 35031 ft 498 kts 163°
2026-04-20 15:21 40.32606 19.30145 35033 ft 498 kts 163°
2026-04-20 15:22 40.26101 19.33056 35037 ft 498 kts 163°
2026-04-20 15:22 40.19543 19.35974 35042 ft 498 kts 163°
2026-04-20 15:23 40.12978 19.38880 35042 ft 498 kts 163°
2026-04-20 15:23 40.06410 19.41782 35043 ft 498 kts 163°
2026-04-20 15:24 39.99850 19.44685 35044 ft 498 kts 163°
2026-04-20 15:24 39.93329 19.47571 35051 ft 498 kts 163°
2026-04-20 15:25 39.86777 19.50461 35050 ft 498 kts 163°
2026-04-20 15:25 39.80203 19.53355 35050 ft 498 kts 163°
2026-04-20 15:26 39.73644 19.56243 35049 ft 498 kts 163°
2026-04-20 15:26 39.67076 19.59121 35050 ft 498 kts 164°
2026-04-20 15:27 39.60550 19.61964 35047 ft 498 kts 164°
2026-04-20 15:27 39.53982 19.64831 35047 ft 498 kts 164°
2026-04-20 15:28 39.47408 19.67693 35046 ft 498 kts 164°
2026-04-20 15:28 39.40830 19.70550 35041 ft 499 kts 164°
2026-04-20 15:29 39.34290 19.73386 35053 ft 499 kts 164°
2026-04-20 15:29 39.27708 19.76234 35047 ft 499 kts 164°
2026-04-20 15:30 39.21125 19.79087 35055 ft 500 kts 164°
2026-04-20 15:30 39.14524 19.81929 35051 ft 500 kts 164°
2026-04-20 15:31 39.07921 19.84764 35053 ft 500 kts 164°
2026-04-20 15:31 39.01356 19.87582 35052 ft 501 kts 164°
2026-04-20 15:32 38.94747 19.90419 35052 ft 501 kts 164°
2026-04-20 15:32 38.88131 19.93254 35057 ft 501 kts 165°
2026-04-20 15:33 38.81508 19.96077 35015 ft 502 kts 165°
2026-04-20 15:33 38.78192 19.97487 34555 ft 500 kts 165°
2026-04-20 15:33 38.74896 19.98892 34309 ft 500 kts 165°
2026-04-20 15:33 38.71617 20.00287 33354 ft 502 kts 165°
2026-04-20 15:34 38.68332 20.01685 32271 ft 495 kts 164°
2026-04-20 15:34 38.65100 20.03058 32051 ft 483 kts 164°
2026-04-20 15:34 38.61931 20.04406 31461 ft 480 kts 164°
2026-04-20 15:34 38.58762 20.05749 30854 ft 479 kts 164°
2026-04-20 15:35 38.55609 20.07082 30249 ft 477 kts 164°
2026-04-20 15:35 38.52463 20.08410 29590 ft 474 kts 163°
2026-04-20 15:35 38.49343 20.09727 28999 ft 470 kts 164°
2026-04-20 15:35 38.46264 20.10830 28423 ft 463 kts 173°
2026-04-20 15:36 38.43100 20.11052 27901 ft 451 kts 188°
2026-04-20 15:36 38.40054 20.10372 27381 ft 438 kts 201°
2026-04-20 15:36 38.37290 20.08898 26881 ft 425 kts 214°
2026-04-20 15:36 38.34857 20.06844 26373 ft 417 kts 219°
2026-04-20 15:37 38.32418 20.04870 25911 ft 415 kts 215°
2026-04-20 15:37 38.29877 20.03128 25428 ft 413 kts 211°
2026-04-20 15:37 38.27265 20.01631 24978 ft 411 kts 207°
2026-04-20 15:37 38.24590 20.00369 24531 ft 409 kts 203°
2026-04-20 15:38 38.21908 19.99350 24086 ft 407 kts 199°
2026-04-20 15:38 38.19150 19.98561 23654 ft 406 kts 195°
2026-04-20 15:38 38.16357 19.98022 23160 ft 404 kts 191°
2026-04-20 15:38 38.13575 19.97720 22657 ft 402 kts 187°
2026-04-20 15:39 38.10794 19.97658 22300 ft 397 kts 183°
2026-04-20 15:39 38.08046 19.97828 21865 ft 395 kts 179°
2026-04-20 15:39 38.05331 19.98231 21431 ft 392 kts 175°
2026-04-20 15:39 38.02653 19.98850 20995 ft 391 kts 171°
2026-04-20 15:40 38.00019 19.99672 20555 ft 389 kts 167°
2026-04-20 15:40 37.97428 20.00683 20110 ft 387 kts 165°
2026-04-20 15:40 37.94893 20.01816 19676 ft 386 kts 161°
2026-04-20 15:40 37.92464 20.03161 19226 ft 386 kts 156°
2026-04-20 15:41 37.90106 20.04778 18760 ft 386 kts 151°
2026-04-20 15:41 37.87842 20.06610 18305 ft 386 kts 147°
2026-04-20 15:41 37.85682 20.08612 17803 ft 385 kts 143°
2026-04-20 15:41 37.83623 20.10767 17350 ft 382 kts 140°
2026-04-20 15:42 37.81686 20.13052 16904 ft 380 kts 136°
2026-04-20 15:42 37.79880 20.15473 16448 ft 377 kts 131°
2026-04-20 15:42 37.78217 20.18023 16015 ft 375 kts 128°
2026-04-20 15:42 37.76687 20.20692 15582 ft 373 kts 124°
2026-04-20 15:43 37.75300 20.23450 15141 ft 371 kts 118°
2026-04-20 15:43 37.74433 20.26427 14743 ft 365 kts 97°
2026-04-20 15:43 37.74323 20.29593 14336 ft 359 kts 87°
2026-04-20 15:43 37.74346 20.32748 13917 ft 358 kts 86°
2026-04-20 15:44 37.74377 20.35881 13476 ft 356 kts 86°
2026-04-20 15:44 37.74408 20.38999 13048 ft 353 kts 86°
2026-04-20 15:44 37.74434 20.42086 12634 ft 351 kts 87°
2026-04-20 15:44 37.74456 20.45157 12216 ft 348 kts 87°
2026-04-20 15:45 37.74476 20.48203 11794 ft 346 kts 87°
2026-04-20 15:45 37.74495 20.51227 11366 ft 343 kts 87°
2026-04-20 15:45 37.74510 20.54198 10949 ft 341 kts 87°
2026-04-20 15:45 37.74506 20.57129 10528 ft 324 kts 91°
2026-04-20 15:46 37.74004 20.59821 10099 ft 310 kts 114°
2026-04-20 15:46 37.72782 20.62001 9689 ft 303 kts 137°
2026-04-20 15:46 37.71022 20.63439 9557 ft 302 kts 160°
2026-04-20 15:46 37.69011 20.64188 9435 ft 302 kts 165°
2026-04-20 15:47 37.67022 20.65044 9156 ft 302 kts 159°
2026-04-20 15:47 37.65122 20.66155 8775 ft 301 kts 152°
2026-04-20 15:47 37.63353 20.67500 8353 ft 301 kts 146°
2026-04-20 15:47 37.61688 20.69088 7960 ft 299 kts 140°
2026-04-20 15:48 37.60186 20.70857 7566 ft 293 kts 134°
2026-04-20 15:48 37.58850 20.72792 7191 ft 292 kts 128°
2026-04-20 15:48 37.57684 20.74868 6811 ft 290 kts 122°
2026-04-20 15:48 37.56699 20.77054 6469 ft 281 kts 116°
2026-04-20 15:49 37.55918 20.79257 6011 ft 267 kts 111°
2026-04-20 15:49 37.55325 20.81447 5714 ft 263 kts 105°
2026-04-20 15:49 37.54898 20.83670 5395 ft 258 kts 100°
2026-04-20 15:49 37.54638 20.85837 5077 ft 251 kts 95°
2026-04-20 15:50 37.54522 20.88011 4754 ft 247 kts 90°
2026-04-20 15:50 37.54561 20.90166 4427 ft 246 kts 85°
2026-04-20 15:50 37.54750 20.92302 4110 ft 244 kts 79°
2026-04-20 15:50 37.55377 20.94237 3796 ft 237 kts 45°
2026-04-20 15:51 37.56756 20.95216 3498 ft 228 kts
2026-04-20 15:51 37.58310 20.95034 3222 ft 224 kts 343°
2026-04-20 15:51 37.59768 20.94433 2927 ft 217 kts 338°
2026-04-20 15:51 37.61162 20.93767 2647 ft 211 kts 336°
2026-04-20 15:52 37.62504 20.93141 2376 ft 206 kts 338°
2026-04-20 15:52 37.63847 20.92549 2103 ft 203 kts 339°
2026-04-20 15:52 37.65164 20.92021 1859 ft 190 kts 340°
2026-04-20 15:53 37.67482 20.91160 1409 ft 158 kts 340°
2026-04-20 15:53 37.68504 20.90849 1157 ft 149 kts 346°
2026-04-20 15:53 37.69486 20.90563 1025 ft 144 kts 339°
2026-04-20 15:53 37.70442 20.90196 881 ft 142 kts 340°
2026-04-20 15:54 37.71375 20.89803 699 ft 141 kts 341°
2026-04-20 15:54 37.72302 20.89439 516 ft 142 kts 344°
2026-04-20 15:54 37.73243 20.89094 290 ft 140 kts 346°
2026-04-20 15:54 37.74184 20.88763 102 ft 140 kts 345°
2026-04-20 15:55 37.75080 20.88428 62 ft 131 kts 347°
2026-04-20 15:55 37.76020 20.88089 724 ft 147 kts 344°
2026-04-20 15:55 37.77060 20.87758 1575 ft 159 kts 344°
2026-04-20 15:55 37.78192 20.87467 1991 ft 177 kts 346°
2026-04-20 15:56 37.79455 20.87146 2280 ft 198 kts 346°
2026-04-20 15:56 37.80879 20.86778 2601 ft 219 kts 346°
2026-04-20 15:56 37.82411 20.86371 2945 ft 226 kts 346°
2026-04-20 15:56 37.83907 20.85914 3003 ft 223 kts 341°
2026-04-20 15:57 37.85350 20.85212 3008 ft 222 kts 333°
2026-04-20 15:57 37.86835 20.84723 3010 ft 221 kts
2026-04-20 15:57 37.88244 20.85289 3007 ft 210 kts 31°
2026-04-20 15:57 37.89222 20.86602 3006 ft 206 kts 61°
2026-04-20 15:58 37.89575 20.88345 3010 ft 206 kts 91°
2026-04-20 15:58 37.89219 20.90081 3011 ft 205 kts 122°
2026-04-20 15:58 37.88260 20.91374 3011 ft 201 kts 151°
2026-04-20 15:58 37.86968 20.91933 3010 ft 197 kts 180°
2026-04-20 15:59 37.85608 20.91707 3037 ft 213 kts 197°
2026-04-20 15:59 37.84113 20.91252 2999 ft 224 kts 196°
2026-04-20 15:59 37.82574 20.90798 3007 ft 229 kts 195°
2026-04-20 15:59 37.81017 20.90348 3009 ft 230 kts 195°
2026-04-20 16:00 37.79465 20.89900 3006 ft 231 kts 195°
2026-04-20 16:00 37.77897 20.89445 3007 ft 233 kts 195°
2026-04-20 16:00 37.76317 20.88987 3008 ft 232 kts 195°
2026-04-20 16:00 37.74737 20.88529 3007 ft 238 kts 195°
2026-04-20 16:01 37.73650 20.88262 3011 ft 242 kts 190°
2026-04-20 16:01 37.71971 20.88050 3008 ft 243 kts 186°
2026-04-20 16:01 37.69732 20.87896 3011 ft 243 kts 185°
2026-04-20 16:01 37.68040 20.87795 3008 ft 244 kts 185°
2026-04-20 16:02 37.66348 20.87683 3009 ft 241 kts 186°
2026-04-20 16:02 37.65262 20.87607 3032 ft 231 kts 186°
2026-04-20 16:02 37.63679 20.87488 3005 ft 226 kts 186°
2026-04-20 16:02 37.62122 20.87363 3006 ft 223 kts 186°
2026-04-20 16:03 37.60585 20.87235 3006 ft 218 kts 187°
2026-04-20 16:03 37.59089 20.87109 3006 ft 214 kts 187°
2026-04-20 16:03 37.57610 20.86981 3007 ft 213 kts 187°
2026-04-20 16:03 37.55662 20.86810 3002 ft 211 kts 187°
2026-04-20 16:04 37.54669 20.86721 3006 ft 212 kts 187°
2026-04-20 16:04 37.53191 20.86831 3011 ft 216 kts 171°
2026-04-20 16:04 37.51808 20.87505 3011 ft 219 kts 148°
2026-04-20 16:04 37.50762 20.88895 3010 ft 222 kts 118°
2026-04-20 16:05 37.50302 20.90746 3016 ft 223 kts 98°
2026-04-20 16:05 37.50394 20.92673 3012 ft 221 kts 71°
2026-04-20 16:05 37.51169 20.94306 3009 ft 217 kts 40°
2026-04-20 16:05 37.52434 20.95250 3009 ft 211 kts 13°
2026-04-20 16:06 37.53873 20.95421 3013 ft 207 kts 357°
2026-04-20 16:06 37.55312 20.95410 3007 ft 206 kts 350°
2026-04-20 16:06 37.56700 20.95039 3009 ft 204 kts 342°
2026-04-20 16:06 37.58044 20.94551 3008 ft 204 kts 340°
2026-04-20 16:07 37.59402 20.94031 3008 ft 204 kts 341°
2026-04-20 16:07 37.60775 20.93507 2744 ft 206 kts 341°
2026-04-20 16:07 37.62106 20.93006 2452 ft 191 kts 340°
2026-04-20 16:07 37.63355 20.92541 2213 ft 185 kts 340°
2026-04-20 16:08 37.64584 20.92096 1959 ft 183 kts 342°
2026-04-20 16:08 37.65758 20.91687 1750 ft 169 kts 341°
2026-04-20 16:08 37.66853 20.91309 1520 ft 159 kts 341°
2026-04-20 16:08 37.67885 20.91036 1305 ft 147 kts 347°
2026-04-20 16:09 37.68870 20.90766 1110 ft 143 kts 340°
2026-04-20 16:09 37.69824 20.90419 957 ft 142 kts 339°
2026-04-20 16:09 37.70752 20.90029 782 ft 140 kts 340°
2026-04-20 16:09 37.71676 20.89643 599 ft 140 kts 344°
2026-04-20 16:10 37.72615 20.89327 387 ft 139 kts 347°
2026-04-20 16:10 37.73546 20.88996 239 ft 139 kts 345°
2026-04-20 16:10 37.74470 20.88655 37 ft 138 kts 345°
2026-04-20 16:10 37.75253 20.88367 19 ft 80 kts 343°
2026-04-20 16:11 37.75567 20.88249 21 ft 29 kts 343°
2026-04-20 16:11 37.75651 20.88186 23 ft 10 kts 349°
2026-04-20 16:11 37.75652 20.88235 24 ft 7 kts 149°
2026-04-20 16:11 37.75599 20.88245 23 ft 11 kts 172°
2026-04-20 16:12 37.75515 20.88272 21 ft 12 kts 153°
2026-04-20 16:12 37.75474 20.88358 21 ft 11 kts 106°
2026-04-20 16:12 37.75446 20.88412 22 ft 7 kts 154°
2026-04-20 16:12 37.75403 20.88429 21 ft 6 kts 163°
2026-04-20 16:13 37.75394 20.88453 20 ft 4 kts 81°
2026-04-20 16:13 37.75402 20.88495 22 ft 5 kts 73°
2026-04-20 16:13 37.75405 20.88507 20 ft 0 kts 73°
2026-04-20 16:13 37.75408 20.88520 20 ft 0 kts 72°